MIDAS 5 DEB, 274

Orbit data source: Space-Track

MIDAS 5 DEB, 274 is space debris in LEO originally from a launch on Mon, 09 Apr 1962 UTC launched from the Air Force Western Test Range (AFWTR). Debris objects in space refer to the collection of defunct objects orbiting the Earth. Examples of debris include non-operational satellites, rocket bodies, and fragments generated from explosions, collisions, or faulty payload assembly.

Loading next visibility...
Identifier
274, 1962-010D
Orbit
LEO
Country
Flag of USUS
Related business
Manufacturer
Unknown
Mission
Spacecraft
Bus & Motor
Unknown
Mass
~10 kg wet, ~10 kg dry
Launch date (UTC)
1962-04-09 (63 years ago)
Launch vehicle
Unknown
Launch site
Air Force Western Test Range (AFWTR)
Object type
Payload
Rocket body
Debris
Shape & HBR
Unknown
Radar Cross Section
Medium (>0.1 m² and <1 m²)

Expand to show TLE details & history
Last TLE update: 1 day ago

TLE from 1 day ago
0 MIDAS 5 DEB
1 00274U 62010D   25259.25792803 -.00000054  00000-0 -12076-1 0  9999
2 00274  86.6769  13.2042 0352500 144.0271 218.4915  9.39385240175065
Epoch: 2025-09-16T06:11Z
TLE epoch observation values (Epoch: 2025-09-16T06:11:24.981Z)
Latitude
Longitude
-75.1007°
Altitude
3,378.322 km
Speed
6.302 km/s
True Right ascension
00h 52m 49s
True Declination
0° 00' 00"
Sunlit
Object was in full shadow at epoch
Visualization orbit readout
Latitude
Unknown
Longitude
Unknown
Altitude
Unknown
Speed
Unknown
Apparent Right ascension
Unknown
Apparent Declination
Unknown
Sunlit
N/A
Visualization observer readout
Local Sidereal Time
22:40:34
Azimuth
Unknown
Elevation
Unknown
Doppler factor
Unknown
Orbital elements
Apogee altitude
3,441.894 km
Perigee altitude
2,773.154 km
Semi-major axis
9,485.661 km
Eccentricity
0.03525
Inclination
86.6769°
RAAN
13.2042°
Arg. of periapsis
144.0271°
True anomaly
216.06206°
Mean anomaly
218.4915°
Eccentric anomaly
217.26848°
Mean motion
2.34932 °/min
Orbital period
153.24 mins
BSTAR
-0.012076
Loading maneuver chart data...
Computing Atmospheric mass density...
Loading historical data...
Loading historical data...
Loading historical data...
Loading historical data...
Loading historical data...
Loading historical data...
Loading historical data...

Documentation

Showing up to 5 results
|